Sioux City, IA

9:43 PM CDT on March 26, 2017 (GMT -0500)
Sioux Gateway

Weather History for KSUX - December, 2011

Change the Weather History Date:

Saturday, December 3, 2011

  Actual Average Record
Temperature  
Mean Temperature 28 °F 26 °F  
Max Temperature 32 °F 36 °F 61 °F (1998)
Min Temperature 23 °F 17 °F -9 °F (1919)
Degree Days  
Heating Degree Days 37 39  
Month to date heating degree days 123 115  
Since 1 July heating degree days 1495 1591  
Cooling Degree Days 0 0  
Month to date cooling degree days 0 0  
Year to date cooling degree days 1093 869  
Moisture  
Dew Point 25 °F    
Average Humidity 85    
Maximum Humidity 100    
Minimum Humidity 69    
Precipitation  
Precipitation 0.31 in 0.03 in 1.08 in (1953)
Month to date precipitation 0.31 0.10  
Year to date precipitation 23.66 27.04  
Snow  
Snow 0.00 in 0.20 in 8.40 in (1897)
Month to date snowfall 0.0 0.7  
Since 1 July snowfall T 6.1  
Snow Depth 0.00 in    
Sea Level Pressure  
Sea Level Pressure 30.06 in    
Wind  
Wind Speed 8 mph (NNW)    
Max Wind Speed 23 mph    
Max Gust Speed 25 mph    
Visibility 4 miles    
Events Fog , Snow    
T = Trace of Precipitation, MM = Missing Value Source: NWS Daily Summary

Daily Weather History Graph

Daily Weather History Graph

Search for Another Location

Airport or City:

Trip Planner

Search our weather history database for the weather conditions in past years. The results will help you decide how hot, cold, wet, or windy it might be!

Date:

Astronomy

Dec. 03, 2011 Rise Set
Actual Time 7:37 AM CST 4:53 PM CST
Civil Twilight 7:05 AM CST 5:24 PM CST
Nautical Twilight 6:30 AM CST 5:59 PM CST
Astronomical Twilight 5:56 AM CST 6:33 PM CST
Moon 1:04 PM CST (12/3) 12:59 AM CST (12/3)
Length of Visible Light 10h 19m
Length of Day
9h 16m
Waxing Gibbous, 63% of the Moon is Illuminated
Dec 3
Waxing Gibbous
Dec 10
Full
Dec 17
Last Quarter
Dec 24
New
Jan 1
First Quarter

Hourly Weather History & Observations

Time (CST) Temp. Windchill Dew Point Humidity Pressure Visibility Wind Dir Wind Speed Gust Speed Precip Events Conditions
12:52 AM 27.0 °F 23.0 °F 19.9 °F 75% 30.11 in 10.0 mi SSE 3.5 mph - N/A   Clear
1:52 AM 28.0 °F 24.2 °F 21.0 °F 75% 30.11 in 10.0 mi South 3.5 mph - N/A   Clear
2:52 AM 27.0 °F 21.6 °F 19.9 °F 75% 30.11 in 10.0 mi SSW 4.6 mph - N/A   Clear
3:52 AM 26.1 °F 19.4 °F 19.9 °F 78% 30.12 in 10.0 mi SW 5.8 mph - N/A   Clear
4:52 AM 24.1 °F 19.7 °F 19.0 °F 81% 30.13 in 10.0 mi WSW 3.5 mph - N/A   Clear
5:52 AM 25.0 °F 19.3 °F 19.9 °F 81% 30.11 in 10.0 mi NNW 4.6 mph - N/A   Clear
6:52 AM 25.0 °F - 19.0 °F 78% 30.12 in 10.0 mi Calm Calm - N/A   Clear
7:52 AM 25.0 °F 18.1 °F 19.9 °F 81% 30.15 in 8.0 mi West 5.8 mph - N/A   Mostly Cloudy
8:52 AM 28.4 °F 22.2 °F 21.2 °F 74% 30.10 in 10.0 mi NW 5.8 mph - N/A   Overcast
9:52 AM 30.0 °F - 21.9 °F 72% 30.12 in 10.0 mi Calm Calm - N/A   Overcast
10:52 AM 30.9 °F 27.5 °F 23.0 °F 72% 30.13 in 5.0 mi West 3.5 mph - 0.00 in Snow Light Snow
10:57 AM 30.2 °F 26.7 °F 23.0 °F 75% 30.08 in 2.5 mi WNW 3.5 mph - 0.00 in Snow Light Snow
11:07 AM 30.2 °F 23.4 °F 24.8 °F 80% 30.08 in 1.5 mi NW 6.9 mph - 0.01 in Snow Light Snow
11:37 AM 28.4 °F 19.1 °F 26.6 °F 93% 30.04 in 0.8 mi NNW 10.4 mph - 0.02 in Snow Light Snow
11:52 AM 30.0 °F 22.4 °F 27.0 °F 88% 30.07 in 1.2 mi NNW 8.1 mph - 0.03 in Snow Light Snow
12:19 PM 30.2 °F 21.9 °F 28.4 °F 93% 30.02 in 1.2 mi North 9.2 mph - 0.00 in Snow Light Snow
12:34 PM 30.2 °F 21.3 °F 28.4 °F 93% 30.02 in 0.8 mi North 10.4 mph - 0.01 in Snow Light Snow
12:47 PM 30.2 °F 22.6 °F 28.4 °F 93% 30.03 in 0.5 mi NNW 8.1 mph - 0.03 in Fog , Snow Snow
12:52 PM 30.9 °F 23.5 °F 28.9 °F 92% 30.07 in 0.8 mi NNW 8.1 mph - 0.03 in Snow Light Snow
1:21 PM 30.2 °F 21.9 °F 28.4 °F 93% 30.01 in 0.5 mi North 9.2 mph - 0.05 in Fog , Snow Snow
1:52 PM 30.9 °F 22.8 °F 30.0 °F 96% 30.04 in 0.8 mi North 9.2 mph - 0.10 in Snow Light Snow
2:05 PM 30.2 °F 23.4 °F 30.2 °F 100% 29.99 in 0.8 mi North 6.9 mph - 0.01 in Snow Light Snow
2:44 PM 30.2 °F 22.6 °F 28.4 °F 93% 29.99 in 1.2 mi NNW 8.1 mph - 0.04 in Snow Light Snow
2:52 PM 30.9 °F 22.2 °F 28.9 °F 92% 30.04 in 1.2 mi NNW 10.4 mph - 0.04 in Snow Light Snow
3:15 PM 30.2 °F 21.3 °F 28.4 °F 93% 30.00 in 2.0 mi NNW 10.4 mph - 0.01 in Snow Light Snow
3:23 PM 32.0 °F 23.6 °F 28.4 °F 87% 30.01 in 3.0 mi NNW 10.4 mph - 0.01 in Snow Light Snow
3:35 PM 32.0 °F 23.0 °F 28.4 °F 87% 30.00 in 1.8 mi NNW 11.5 mph - 0.02 in Snow Light Snow
3:52 PM 30.9 °F 22.2 °F 28.9 °F 92% 30.04 in 1.5 mi NNW 10.4 mph - 0.03 in Snow Light Snow
4:23 PM 30.2 °F 21.9 °F 30.2 °F 100% 29.99 in 0.8 mi North 9.2 mph - 0.01 in Snow Light Snow
4:45 PM 30.2 °F 21.3 °F 30.2 °F 100% 29.99 in 1.0 mi NNW 10.4 mph - 0.03 in Snow Light Snow
4:52 PM 30.9 °F 22.2 °F 30.0 °F 96% 30.04 in 1.2 mi North 10.4 mph - 0.03 in Snow Light Snow
5:52 PM 30.9 °F 21.2 °F 28.9 °F 92% 30.05 in 1.8 mi NNW 12.7 mph - 0.03 in Snow Light Snow
6:03 PM 30.2 °F 18.9 °F 28.4 °F 93% 30.01 in 2.0 mi NNW 16.1 mph - 0.00 in Snow Light Snow
6:25 PM 30.2 °F 18.5 °F 28.4 °F 93% 30.01 in 3.0 mi NNW 17.3 mph - 0.00 in Snow Light Snow
6:47 PM 30.2 °F 17.8 °F 26.6 °F 86% 30.01 in 2.5 mi NNW 19.6 mph - 0.01 in Snow Light Snow
6:52 PM 28.9 °F 16.1 °F 26.1 °F 89% 30.06 in 2.5 mi NNW 19.6 mph - 0.01 in Snow Light Snow
7:43 PM 28.4 °F 16.6 °F 24.8 °F 86% 30.02 in 3.0 mi North 16.1 mph - 0.00 in Snow Light Snow
7:52 PM 28.4 °F 18.0 °F 24.8 °F 86% 30.02 in 3.0 mi North 12.7 mph - N/A Snow Light Snow
8:12 PM 28.4 °F 16.6 °F 24.8 °F 86% 30.02 in 3.0 mi North 16.1 mph - 0.01 in Snow Light Snow
8:52 PM 27.0 °F 16.1 °F 24.1 °F 89% 30.07 in 4.0 mi NNW 12.7 mph - 0.01 in Snow Light Snow
9:52 PM 26.1 °F 16.8 °F 23.0 °F 88% 30.08 in 10.0 mi NNW 9.2 mph - 0.00 in   Overcast
10:52 PM 25.0 °F 14.2 °F 19.9 °F 81% 30.09 in 10.0 mi NW 11.5 mph - N/A   Scattered Clouds
11:52 PM 26.1 °F 16.8 °F 19.0 °F 75% 30.11 in 10.0 mi NW 9.2 mph - N/A   Overcast